Theta_e
317 316 315 316 314 314 314 315 313 311 309 308 308 306 305 305 304 303 303 303 302 302 302 303 303 303 302 302 302 302 302 302 303 306 306 303 301 301 301 301 302 301 302 303 304 306 303 304 308 308 309 309 309 308 308 308 307 306 307 306 306 306 306 305 305 305 305 305 305 305 304 304 305 305 305 305 306 306 305 305 305 305 305 305 305 305 305 305 305 304 304 304 304 304 304 304 303
317 316 316 316 314 315 316 315 313 310 309 308 307 306 305 304 304 302 302 302 302 302 303 303 303 303 302 302 302 302 302 302 302 303 302 301 301 301 301 301 302 301 302 302 304 306 301 302 307 307 308 308 308 308 307 307 306 306 306 306 306 305 305 305 304 304 304 304 304 304 303 303 304 304 304 304 305 305 304 304 304 304 304 304 304 304 304 304 303 303 303 302 303 303 303 302 302
316 316 314 316 316 316 315 313 311 310 309 308 307 307 306 305 304 303 303 303 303 303 303 303 303 303 303 302 302 302 302 302 302 302 302 301 301 300 301 301 301 301 301 302 304 304 299 301 306 307 307 308 307 307 306 306 305 305 305 305 305 305 304 304 304 304 304 303 303 303 302 302 303 303 303 303 304 304 304 303 303 303 303 303 303 303 303 303 302 302 302 301 301 301 301 301 301
315 315 315 316 316 315 314 312 310 309 308 308 307 307 307 306 304 304 304 304 304 303 302 301 302 303 303 302 301 301 301 301 302 302 302 301 301 300 301 301 301 301 301 301 303 300 296 298 304 306 307 307 307 306 306 305 305 305 304 304 304 304 304 304 303 303 303 303 302 302 302 301 301 302 302 302 303 303 303 303 303 303 302 302 302 302 302 301 301 302 301 301 300 300 300 300 300
315 315 315 315 315 314 313 311 310 309 307 307 307 306 306 306 305 305 304 304 304 303 302 301 301 302 302 302 302 302 301 301 302 302 301 301 300 300 301 301 301 301 300 301 301 298 296 297 300 304 306 306 306 305 305 305 304 303 303 303 303 303 303 303 303 302 302 302 302 301 301 300 300 301 301 301 301 302 302 302 302 302 301 301 301 301 301 300 300 300 300 300 299 299 299 299 299
314 314 314 314 314 313 312 310 309 308 307 307 306 305 304 305 304 304 303 303 303 303 303 302 301 301 301 301 302 302 302 302 302 302 301 301 301 300 301 301 300 300 300 300 301 298 296 296 297 300 303 304 304 304 304 304 302 301 301 301 301 302 302 302 302 301 301 301 301 300 300 300 300 300 300 300 300 301 301 301 301 301 300 300 300 300 300 299 299 299 299 298 298 298 298 298 298
314 313 313 313 312 311 310 310 309 309 308 307 306 305 304 304 304 303 303 302 302 303 303 302 302 301 301 302 301 301 302 302 302 302 301 301 301 301 301 301 300 300 300 300 301 298 296 296 296 297 299 301 301 301 301 301 300 299 299 299 299 300 300 300 300 299 299 299 300 299 299 299 299 299 299 299 299 300 300 300 300 299 299 299 299 299 299 298 298 298 298 298 297 297 297 297 297
313 313 313 312 311 310 309 308 308 308 308 307 307 306 306 305 304 304 303 303 302 303 303 303 302 302 302 302 301 301 301 301 301 301 301 301 301 300 301 301 300 300 300 300 300 299 297 296 296 296 296 297 298 298 298 298 296 296 295 295 295 296 297 297 297 297 297 297 298 297 297 297 297 297 297 298 298 298 299 299 299 298 298 298 298 298 298 297 297 297 297 297 296 296 296 296 296
313 314 313 312 311 310 308 308 307 307 307 306 306 307 306 304 304 304 303 303 302 303 302 303 303 302 301 301 300 301 301 300 300 301 301 301 301 300 300 300 300 300 300 300 300 300 299 297 296 296 296 296 296 296 295 295 293 292 292 292 292 292 293 293 294 295 295 295 295 296 295 295 295 294 294 296 296 296 297 298 298 297 297 297 297 297 297 297 296 296 296 296 296 296 296 295 295
314 314 313 311 310 309 308 308 307 307 306 306 306 306 306 304 304 303 302 302 302 302 302 302 302 302 301 301 301 301 301 300 300 301 301 301 300 300 300 300 300 300 300 299 300 300 300 299 297 296 296 296 296 296 295 294 293 291 291 290 290 289 290 290 291 291 291 291 291 292 292 292 291 290 290 291 293 293 294 297 297 297 297 297 297 297 296 296 296 296 296 295 295 295 295 295 295
316 315 314 312 310 309 307 307 306 306 306 306 306 305 306 305 304 303 302 301 302 302 302 303 302 302 302 301 301 301 300 300 301 301 301 300 300 300 300 300 300 300 300 300 300 300 300 300 298 296 296 296 296 296 295 294 293 292 290 290 289 289 288 288 289 288 289 289 289 289 289 288 288 287 287 287 288 289 289 293 296 296 296 296 296 296 296 296 296 296 295 295 294 294 294 294 294
315 315 314 311 310 309 308 307 306 306 306 306 306 306 306 305 304 303 303 302 302 302 302 302 302 302 302 301 301 301 300 300 301 301 301 300 300 301 300 300 300 300 299 300 301 300 300 300 299 296 296 296 296 296 295 294 293 292 291 290 289 289 288 287 287 287 287 287 287 287 287 287 286 286 286 286 286 286 285 288 294 296 295 295 295 295 295 295 295 295 295 294 294 293 294 293 293
314 313 312 311 311 309 308 308 307 307 306 305 305 306 306 305 304 304 304 303 303 302 302 302 302 303 302 301 301 301 301 301 301 301 300 300 300 300 300 300 300 300 299 299 301 300 300 299 298 297 296 296 296 296 296 295 294 292 291 290 289 289 288 287 287 287 286 286 287 287 287 286 286 286 285 286 285 286 285 285 290 294 293 293 294 294 294 294 295 294 294 294 293 293 293 293 292
315 314 314 312 311 309 309 308 307 306 305 305 305 305 305 304 305 304 304 304 303 302 302 302 302 302 301 301 301 301 301 301 301 300 300 300 301 300 300 300 300 300 299 299 301 300 300 299 298 297 296 296 296 296 296 295 294 293 291 290 289 288 288 287 287 286 286 286 287 287 286 286 286 285 285 286 286 285 285 284 287 291 292 291 292 293 293 294 294 294 293 293 293 292 292 292 292
316 317 315 312 310 309 309 308 306 305 304 304 304 304 303 303 304 304 304 304 304 302 302 302 302 303 302 302 303 302 301 301 301 300 300 300 300 301 300 301 300 300 299 300 300 300 300 299 298 298 296 296 296 296 296 296 294 293 291 289 289 288 288 287 287 286 286 286 287 286 286 286 285 285 285 285 286 285 285 285 285 288 290 289 290 291 292 293 293 293 292 292 292 291 290 290 291
318 317 314 311 310 310 309 308 307 305 304 303 303 303 302 302 302 303 303 303 303 302 303 302 302 304 303 303 303 302 301 301 300 300 300 300 300 301 301 301 301 301 300 300 300 300 300 299 298 297 297 296 296 296 296 296 295 294 292 290 289 288 288 287 286 286 286 286 287 286 286 286 286 285 285 286 285 285 284 285 284 286 287 286 287 289 290 291 292 292 292 291 291 290 289 289 289
317 316 313 312 310 309 309 308 307 305 303 302 303 303 301 301 301 302 302 302 302 301 302 302 302 303 303 302 302 301 301 300 300 300 300 301 301 301 301 301 301 301 301 301 301 301 300 299 298 297 297 296 296 296 296 296 295 294 293 291 290 289 288 287 286 286 286 286 287 286 286 286 286 285 285 286 285 285 284 285 285 285 286 285 286 287 288 289 290 291 291 290 290 289 287 286 287
316 314 312 312 310 308 307 306 306 304 302 302 303 303 301 301 301 301 301 302 301 301 301 301 302 302 301 302 302 301 301 300 300 301 301 301 301 302 301 301 301 301 302 302 302 301 300 300 299 298 297 296 296 296 295 295 294 294 293 291 290 289 288 288 287 286 286 286 286 286 286 286 286 285 285 285 285 285 285 285 285 285 285 285 285 285 286 287 289 289 290 289 288 287 286 285 285
313 312 311 311 310 309 307 305 304 303 303 303 303 303 302 302 302 301 301 301 301 301 301 301 302 302 301 301 301 301 300 300 301 301 302 302 302 302 302 302 302 301 302 302 302 301 300 300 300 298 297 297 296 296 296 295 295 294 294 292 291 290 289 289 288 287 286 286 286 286 286 286 286 285 284 285 285 285 285 285 285 285 285 284 284 284 284 286 286 287 287 287 286 286 285 285 285
310 310 310 310 309 308 307 306 305 304 304 303 303 303 302 302 302 301 302 302 302 302 302 302 302 301 301 301 301 301 301 301 301 301 302 302 302 302 302 302 302 301 301 301 302 302 301 300 300 298 297 297 297 296 296 296 296 295 294 293 292 290 289 288 288 287 286 286 286 286 287 287 286 285 284 285 285 284 285 285 285 284 284 284 284 284 284 284 284 284 285 285 285 285 285 285 285
310 308 308 308 308 307 306 305 304 304 303 303 302 302 302 302 302 302 303 303 303 303 303 303 302 301 301 301 301 301 301 301 301 302 302 302 302 302 302 302 302 301 301 301 301 301 301 300 299 298 298 297 297 297 296 296 296 295 295 294 292 291 289 288 288 287 286 286 286 286 286 286 286 285 284 284 284 284 284 285 285 284 284 284 284 284 283 284 283 283 284 284 285 285 285 285 285
308 307 307 306 306 305 304 303 303 304 303 303 303 303 302 302 302 302 303 303 303 303 303 303 303 302 301 301 301 301 302 302 302 302 302 302 302 302 302 302 302 301 301 300 301 301 302 301 299 298 298 297 297 297 296 296 296 295 295 294 293 291 290 288 287 287 287 286 285 285 286 286 286 286 284 284 284 284 284 285 284 284 284 284 284 284 283 283 283 283 283 284 284 285 285 284 285
307 307 306 306 305 304 303 302 302 303 303 303 303 303 302 302 303 302 302 303 303 302 302 303 303 302 302 302 302 302 302 302 302 302 302 302 303 302 302 302 302 301 301 301 301 301 301 301 300 299 298 297 297 297 296 296 295 295 295 295 294 292 291 289 288 288 287 287 286 285 286 286 286 285 284 284 284 284 285 284 284 284 284 284 284 283 284 283 283 283 283 283 284 284 285 284 285
306 305 305 304 304 303 302 302 302 303 303 303 302 303 303 303 303 302 302 303 302 302 302 302 303 303 302 302 302 302 302 302 302 302 302 302 302 302 302 302 302 302 301 301 301 301 301 300 300 299 298 298 297 297 297 296 295 295 295 295 294 293 292 290 289 288 287 287 286 286 285 285 285 285 285 284 284 284 284 284 284 284 284 284 283 283 284 284 283 283 283 283 284 284 285 285 284
305 304 303 303 303 302 302 302 302 303 302 302 303 303 303 303 302 302 303 303 301 301 302 301 302 302 302 302 302 302 302 302 302 302 302 302 302 302 302 302 302 302 301 301 301 301 301 301 300 299 298 298 297 297 297 296 296 295 295 295 294 294 293 292 290 289 287 287 287 286 286 286 286 285 285 285 284 284 284 284 284 284 284 283 283 283 284 284 283 283 283 283 284 284 284 285 284
304 303 303 303 302 302 302 303 302 303 303 302 303 304 303 303 302 303 303 303 302 301 301 301 301 301 301 301 302 302 302 302 302 302 302 302 302 302 302 302 302 301 301 301 301 301 301 301 301 299 298 298 297 297 297 296 296 295 295 295 295 294 293 293 291 289 288 288 287 286 286 286 286 285 285 285 285 284 284 284 284 284 284 283 283 283 283 284 283 283 283 284 284 284 284 284 284
304 303 303 303 303 303 303 303 302 303 303 302 303 304 304 303 302 304 304 303 302 301 301 301 301 301 301 301 302 302 302 302 302 302 302 302 302 302 302 301 301 301 301 301 301 301 301 301 301 300 299 298 298 297 297 296 296 296 295 295 295 294 294 293 292 291 290 289 288 287 287 286 286 286 285 285 285 285 284 284 284 284 284 283 284 283 283 284 283 283 283 283 284 284 284 284 284
304 303 303 303 303 303 304 303 303 303 303 303 303 303 304 303 303 304 304 302 302 301 302 302 301 302 301 301 302 302 302 302 302 302 302 302 302 302 302 301 302 301 301 301 301 301 301 301 301 300 299 298 298 297 297 297 296 296 296 295 295 295 294 294 293 292 291 290 289 288 287 286 286 286 285 285 285 285 284 284 284 284 284 283 284 283 283 284 283 283 283 283 283 284 284 284 284
304 305 304 303 304 304 304 304 304 303 303 302 302 304 305 303 304 304 303 302 302 302 302 302 302 302 302 302 301 302 302 302 302 302 302 302 302 302 302 302 302 301 301 302 302 301 301 301 301 300 299 298 298 298 297 297 296 296 296 295 295 295 294 294 293 293 293 292 291 289 288 287 286 285 285 285 285 285 284 284 284 284 284 284 284 284 283 283 283 283 283 283 283 283 284 284 284
305 305 304 305 306 305 304 304 304 303 303 302 303 308 308 304 304 304 303 302 302 302 302 303 302 302 303 303 302 302 302 302 302 302 302 302 302 302 302 302 302 302 301 301 302 302 301 301 301 300 299 299 298 298 297 297 296 296 296 296 296 295 295 294 294 294 294 293 292 291 289 287 287 286 285 285 285 285 284 284 284 283 283 284 284 284 283 283 283 282 283 284 283 283 283 284 284
305 306 306 308 309 306 305 305 304 303 304 302 303 310 309 305 305 303 303 303 302 302 303 303 303 303 303 304 304 303 302 303 302 302 302 302 302 302 302 302 302 302 301 301 301 302 302 301 301 300 299 299 298 298 297 297 297 296 296 296 296 296 295 294 294 294 294 294 293 292 291 289 287 286 286 285 285 285 284 284 284 283 283 283 284 283 283 283 283 283 283 283 283 283 283 284 284
305 308 309 311 311 308 305 305 305 305 304 303 304 309 308 306 305 303 303 303 302 303 303 303 303 303 304 304 304 303 302 303 303 303 303 303 302 302 302 302 302 302 301 301 301 301 302 301 301 300 299 299 298 298 297 297 297 297 296 296 296 296 296 295 295 295 294 294 294 293 293 290 289 287 286 286 285 285 284 284 284 284 283 283 284 283 283 283 283 283 283 282 283 283 283 283 283
306 309 312 311 311 309 306 304 304 305 305 304 305 307 307 306 305 303 303 303 303 303 303 304 304 304 304 304 304 304 303 303 303 303 303 303 303 302 302 302 302 302 301 301 301 301 301 301 301 300 300 299 298 298 298 297 297 297 296 296 296 296 296 295 295 295 295 295 295 294 293 292 290 288 287 286 285 285 285 284 284 284 283 283 283 283 283 283 283 283 282 282 282 282 283 283 283
309 310 312 309 308 308 307 305 304 305 306 305 305 305 306 307 305 303 303 303 303 303 303 304 304 305 305 305 305 304 304 304 303 303 303 303 303 302 302 302 301 301 301 301 301 301 301 301 301 300 300 299 298 298 298 297 297 297 297 296 296 296 296 296 295 295 295 295 295 294 294 293 291 290 288 286 286 285 285 285 284 284 283 283 283 283 283 283 283 283 282 282 282 282 283 283 284
311 311 310 308 306 306 308 307 305 304 306 306 306 306 307 307 305 304 303 303 303 303 303 304 305 306 306 306 306 304 305 304 303 303 303 303 303 303 302 302 302 301 301 300 300 300 300 301 301 300 300 299 299 298 298 298 297 297 297 296 296 296 296 296 296 295 295 295 294 294 294 294 292 291 289 287 286 286 285 285 284 284 284 283 283 283 283 283 283 282 282 282 282 283 283 284 284
309 311 310 309 308 306 307 306 304 304 306 307 307 308 309 309 306 304 303 303 304 304 304 305 305 306 306 306 306 306 306 305 304 304 304 304 304 303 303 302 302 301 301 300 300 300 300 301 301 301 300 299 299 298 298 298 297 297 297 296 296 296 296 296 296 295 295 294 294 294 294 294 293 292 291 288 287 286 285 285 284 284 284 284 283 283 283 283 282 282 282 282 282 283 283 284 284
308 311 311 312 310 308 307 305 304 304 307 308 308 309 309 309 309 306 304 303 304 304 305 305 306 306 307 307 307 308 307 305 304 304 304 304 304 303 303 302 302 301 301 300 300 300 300 300 300 300 300 300 299 298 298 298 298 297 297 296 296 296 296 296 296 295 295 294 294 294 294 294 293 293 292 290 288 287 286 285 285 284 284 284 283 283 283 283 282 282 282 282 282 282 283 283 284
309 311 311 313 313 309 306 305 304 304 307 309 308 309 310 309 309 307 304 304 304 304 305 305 306 306 307 308 308 309 308 306 305 306 306 305 304 303 303 302 301 301 301 301 300 300 300 300 300 300 300 300 299 299 299 298 298 298 297 297 297 296 296 296 296 295 295 294 294 294 294 294 294 294 293 292 290 288 287 286 285 285 284 284 283 283 283 283 283 283 282 282 282 282 282 283 284
312 314 315 314 313 310 306 305 305 304 307 310 308 310 311 309 308 307 305 305 306 306 306 307 307 308 307 308 309 310 309 309 308 306 306 306 305 304 303 302 301 301 301 301 301 300 300 300 300 300 300 300 300 299 299 298 298 298 297 297 296 296 296 296 296 295 295 294 294 294 294 294 294 294 294 293 291 290 288 286 286 285 284 284 284 283 283 283 283 283 282 282 282 282 282 283 284
315 318 317 315 313 311 309 306 305 305 307 308 308 310 312 309 308 308 307 306 307 308 308 308 309 310 309 310 311 311 310 311 310 307 306 306 305 304 304 303 302 302 301 300 301 300 300 300 300 300 300 300 300 300 299 299 298 298 297 297 296 296 296 296 296 295 294 294 294 294 295 295 295 294 294 293 293 292 290 288 286 285 285 284 284 284 283 283 283 283 283 282 282 282 282 282 283
317 317 316 314 312 309 308 308 307 307 308 307 308 313 314 311 310 310 308 307 307 308 308 308 309 310 310 310 311 311 310 310 310 308 306 306 306 305 304 304 303 303 302 301 301 301 301 301 301 300 300 300 300 300 300 299 298 297 297 297 296 296 296 296 295 295 295 295 295 295 296 295 295 295 294 294 294 293 292 290 288 286 285 284 284 284 283 283 283 283 283 282 282 282 281 282 282
317 313 312 311 308 307 309 311 311 311 312 310 311 315 315 313 313 312 310 309 308 308 308 308 309 310 310 310 310 312 311 309 308 307 306 306 306 305 305 305 304 304 303 302 301 301 301 301 301 301 300 300 300 300 300 299 298 298 297 297 297 297 296 296 296 296 296 296 296 296 296 296 295 295 295 294 294 293 293 292 291 289 286 285 285 284 284 283 283 283 283 282 282 282 282 282 282
317 310 308 308 307 310 312 313 314 314 314 312 312 316 317 315 314 312 311 311 310 310 310 310 310 310 311 311 311 311 310 309 308 307 306 306 306 306 306 305 305 305 304 304 303 302 302 301 301 301 300 300 300 300 300 299 299 298 298 297 297 297 297 297 297 297 297 297 297 297 296 296 296 295 295 294 294 294 293 293 293 291 289 287 285 285 284 284 283 283 283 282 282 282 282 282 282
317 309 307 308 308 311 313 314 317 316 314 313 313 315 316 315 314 313 313 312 312 312 311 311 310 309 310 309 309 309 308 307 308 306 305 305 305 305 306 306 306 305 305 305 304 303 303 302 301 301 301 301 300 300 300 300 299 299 298 298 297 297 297 297 297 297 297 297 297 297 296 296 295 295 295 294 294 294 294 293 293 293 291 289 287 286 285 284 283 283 283 283 283 282 282 282 281
315 307 307 309 308 310 311 314 318 316 314 315 315 314 315 315 314 314 315 314 313 312 311 311 311 311 311 310 309 309 308 306 306 305 304 304 304 304 304 305 305 305 305 305 305 304 303 303 302 302 301 301 301 300 300 300 300 299 298 298 298 298 297 297 297 297 297 297 297 297 296 296 295 295 295 294 294 294 294 293 293 293 293 292 289 287 286 285 284 283 283 283 283 282 282 282 281
311 306 307 308 308 310 311 313 316 315 314 316 315 313 314 316 316 316 316 315 313 312 311 311 312 312 312 311 311 309 308 307 306 305 305 305 305 305 304 304 304 304 304 304 304 304 304 303 303 302 301 301 301 301 301 300 300 299 299 298 298 298 298 297 297 297 297 297 297 297 296 296 295 295 295 294 294 294 294 293 293 293 293 292 291 289 288 286 285 284 284 283 283 283 282 282 282
308 308 312 314 313 313 312 313 314 315 316 315 311 310 312 316 317 316 315 313 311 311 310 311 311 311 312 311 310 308 308 308 307 306 306 306 306 306 305 304 304 304 304 303 303 303 303 302 302 302 301 301 301 301 301 300 300 299 299 298 298 298 298 297 297 297 297 297 297 297 297 296 295 295 294 294 294 294 293 293 293 293 293 292 292 291 290 288 287 285 284 283 283 283 282 282 282
309 312 316 318 317 315 313 314 315 317 318 314 310 309 311 316 317 314 313 311 311 311 310 310 311 310 311 311 310 309 309 309 308 307 307 307 306 305 305 304 304 303 303 303 303 303 303 303 302 302 301 301 301 301 300 300 300 300 299 299 298 298 298 297 297 297 297 297 297 297 297 296 296 295 294 294 294 294 293 293 293 293 293 293 293 292 291 290 287 286 285 284 284 283 283 282 282
311 314 317 319 320 317 316 317 319 320 319 312 309 310 314 318 317 314 312 312 311 311 310 310 310 310 311 311 310 310 310 310 309 307 307 306 306 305 304 304 304 303 303 302 302 302 302 302 302 302 302 301 301 301 300 300 300 300 300 299 299 298 298 297 297 297 297 297 297 297 297 297 296 295 295 295 294 294 293 293 293 293 293 293 292 292 291 290 288 286 285 284 284 284 283 283 282
313 315 316 319 320 317 317 318 317 318 318 313 310 312 317 316 315 313 313 312 311 311 310 310 310 309 310 310 311 311 311 311 309 307 307 306 305 305 305 304 304 303 302 302 302 302 301 301 301 301 301 301 301 301 300 300 300 300 300 299 299 298 298 298 297 297 297 297 297 297 297 297 296 296 296 295 295 294 294 293 293 293 292 292 292 291 291 290 288 287 286 285 284 284 283 283 283
314 313 314 318 318 316 318 320 319 319 319 316 312 315 318 315 315 315 313 312 311 310 309 309 310 311 311 312 312 312 311 310 309 307 306 306 305 305 305 304 303 302 302 301 301 301 300 300 300 300 300 300 300 300 300 300 300 300 300 300 299 299 298 298 298 297 297 297 297 297 297 297 296 296 296 295 295 294 294 293 293 292 292 292 291 291 290 290 289 287 286 285 285 284 283 283 283
313 310 315 318 315 317 320 319 318 319 321 320 316 318 318 315 315 314 312 312 311 309 310 310 311 312 313 314 313 312 311 310 310 308 306 306 305 305 304 303 303 302 302 301 301 301 300 300 300 299 299 299 299 299 299 299 299 299 299 300 299 299 298 298 297 297 297 297 296 296 296 296 296 296 295 295 295 294 294 293 293 292 292 291 291 291 290 289 288 287 286 286 285 285 284 283 283
312 312 316 313 308 315 323 318 314 317 321 320 317 317 316 314 315 313 312 312 311 310 311 311 313 313 314 315 313 312 312 311 310 308 305 305 305 304 304 303 303 302 302 302 301 301 300 300 300 299 299 298 298 298 298 298 298 298 298 298 298 298 298 297 297 296 296 296 296 295 295 295 295 295 294 294 294 294 293 293 292 292 291 291 291 290 289 289 288 287 286 286 285 285 284 283 283
312 315 313 309 308 312 318 319 318 320 321 319 315 315 315 316 317 313 311 313 312 312 312 312 314 314 314 315 314 312 312 311 309 306 305 305 304 304 303 303 302 302 302 302 301 301 300 300 299 299 298 298 298 298 298 298 297 297 298 297 297 297 297 296 296 295 295 295 294 294 294 294 294 294 293 293 293 293 292 292 292 291 291 290 290 289 289 288 288 287 286 286 285 285 284 284 283
309 312 308 311 316 317 317 319 320 320 319 318 316 314 315 318 318 314 313 314 314 314 313 313 314 314 314 314 313 312 312 311 309 306 305 304 304 304 303 302 302 302 301 301 300 300 299 299 299 298 298 297 297 297 297 297 297 297 297 297 296 296 296 295 295 294 294 294 293 293 293 293 292 292 292 292 292 292 291 291 291 290 290 290 289 289 288 288 287 286 286 285 285 285 284 283 283
305 309 308 310 314 317 317 318 319 320 320 318 317 317 321 324 324 319 315 313 314 315 315 315 314 314 313 313 313 313 312 311 310 307 304 304 304 304 303 302 302 301 301 300 300 299 299 298 298 297 297 296 296 296 296 296 296 296 296 296 295 295 295 295 294 294 293 293 293 292 292 292 291 291 291 291 291 291 291 290 290 290 289 289 288 288 288 287 287 286 286 285 285 285 284 283 283
309 312 313 312 312 312 314 315 316 318 321 320 317 320 324 323 319 318 315 313 316 316 316 318 316 313 313 313 313 312 311 310 309 306 304 304 304 303 303 302 301 301 300 299 299 299 298 298 297 296 296 296 295 295 295 295 295 295 295 295 295 294 294 294 293 293 293 292 292 292 292 291 291 291 290 290 290 289 289 289 289 288 288 288 287 287 287 287 286 286 285 285 285 284 284 283 283
312 314 315 316 316 316 318 318 314 314 318 320 319 323 328 322 315 316 315 315 317 318 318 319 317 313 313 314 313 312 311 310 308 305 303 304 303 303 302 301 301 300 299 299 298 298 297 297 296 296 295 295 295 294 294 294 294 294 294 294 294 294 294 293 293 293 292 292 292 291 291 291 290 290 289 289 289 289 288 288 288 288 287 287 287 286 286 286 285 285 285 285 284 284 284 283 283
Wind_Speed
8 10 10 6 9 19 17 6 4 5 4 10 10 7 8 9 9 9 10 9 7 7 7 6 7 8 9 9 11 10 8 6 3 2 3 5 6 7 7 7 7 9 10 10 11 12 13 15 18 19 20 21 21 21 20 20 19 19 19 19 19 19 19 19 19 19 20 20 20 20 20 21 21 21 21 21 22 22 22 23 23 23 23 23 23 23 23 23 23 23 23 23 23 23 23 23 23
7 6 7 8 7 11 4 1 5 6 6 11 9 7 9 9 10 11 10 10 7 4 5 5 5 8 11 11 10 9 9 8 7 6 7 11 10 8 6 6 6 9 10 11 10 11 14 15 17 17 19 20 19 20 19 19 19 18 18 18 18 18 18 19 19 19 19 19 19 20 20 20 21 21 21 21 22 22 22 22 23 23 23 23 23 23 23 23 23 23 23 23 23 23 23 23 23
10 4 5 11 11 7 2 1 5 5 8 10 8 7 8 8 10 10 10 10 6 3 3 5 6 7 8 10 8 7 6 6 8 8 7 9 8 8 5 4 6 9 10 11 9 11 14 14 15 16 17 18 18 18 18 18 18 18 17 17 18 18 18 18 18 18 19 19 19 19 20 20 20 21 21 21 21 21 22 22 22 22 23 23 23 23 23 23 23 23 23 23 23 23 23 23 23
18 12 12 13 8 7 3 5 5 6 8 8 6 7 8 9 10 10 10 7 4 3 4 5 5 7 9 9 7 7 5 4 7 7 7 8 8 6 4 4 6 9 9 10 8 11 14 14 14 15 15 16 17 17 17 17 17 17 17 17 17 17 17 17 18 18 18 18 18 19 19 20 20 21 21 21 21 21 22 22 22 22 23 23 23 23 23 23 23 23 23 23 23 23 22 22 23
29 27 25 18 7 4 3 5 6 6 8 6 6 7 8 9 9 9 8 6 4 4 3 5 4 5 7 6 3 4 3 5 8 9 9 8 7 5 5 6 7 8 9 8 7 11 14 14 14 14 14 15 16 16 16 17 16 16 16 16 16 16 17 17 17 17 17 17 18 18 18 19 19 20 20 21 21 21 22 22 22 22 23 23 23 23 23 24 23 23 23 23 23 23 22 22 23
26 29 32 23 8 4 3 6 8 8 9 7 6 8 9 9 9 9 8 7 5 4 4 6 5 6 5 4 6 5 3 3 6 7 8 7 5 4 5 6 7 7 8 7 6 11 14 14 15 14 14 15 15 16 16 16 16 16 16 16 16 16 16 16 17 17 17 17 17 17 18 18 19 19 20 20 20 21 21 21 22 22 22 22 23 23 23 23 23 23 23 23 23 23 23 22 22
15 16 19 14 6 5 6 9 9 8 9 9 8 9 9 9 8 9 9 7 6 4 5 5 7 7 3 2 5 6 7 6 7 6 7 7 5 4 3 4 6 6 6 6 5 10 13 14 15 15 15 15 16 17 16 16 16 16 16 16 16 16 16 16 16 16 17 17 17 17 17 17 18 19 19 19 20 20 21 21 22 22 22 22 22 22 23 23 23 23 23 23 23 23 22 22 23
24 14 5 6 6 5 7 10 9 8 9 10 9 8 8 9 7 7 8 7 6 4 3 4 6 6 3 2 3 3 6 8 9 7 7 6 5 4 4 4 6 6 4 5 4 8 12 13 14 15 16 17 18 18 18 17 16 17 16 17 16 16 16 16 16 16 16 16 16 17 17 17 18 18 19 19 19 20 21 21 21 22 22 22 22 22 23 23 23 23 23 23 23 23 22 23 22
24 14 3 6 7 6 9 9 9 9 9 9 8 7 7 8 8 7 8 7 5 5 4 3 3 4 5 6 4 5 7 7 8 7 6 5 4 4 4 4 5 4 3 4 3 7 10 12 14 15 16 17 19 20 19 18 17 17 17 17 17 17 16 16 16 16 16 16 16 17 17 17 18 18 19 19 19 20 20 21 21 21 22 22 22 22 23 23 23 23 23 23 22 22 22 23 22
10 7 4 5 6 8 9 7 8 8 8 8 7 7 6 7 8 9 9 8 6 6 6 5 5 6 6 7 3 5 8 7 7 6 5 5 4 4 4 4 3 3 1 3 3 5 9 11 13 15 16 17 19 20 20 19 18 18 18 18 18 17 17 17 17 16 16 16 16 16 17 17 18 19 19 19 19 19 19 20 21 21 21 22 22 22 22 23 23 23 23 22 22 21 22 22 22
4 4 4 4 6 8 7 7 7 7 8 7 6 6 5 6 8 8 8 8 6 6 4 2 5 7 6 5 2 6 9 7 6 7 6 4 4 4 3 2 2 2 1 3 4 4 7 11 14 15 17 18 19 20 20 19 19 18 18 18 18 18 18 17 17 16 16 16 16 17 17 18 18 19 19 19 19 19 19 19 20 21 21 21 22 22 22 22 23 23 22 22 21 21 21 21 22
5 5 4 5 6 7 8 8 8 8 8 6 6 4 2 5 8 7 8 7 5 6 4 3 3 4 5 4 2 8 9 7 6 8 6 4 4 3 3 2 1 1 2 2 2 4 5 6 12 15 17 18 19 20 20 20 19 18 18 18 18 18 18 18 17 17 16 16 16 17 17 18 19 19 19 19 19 19 19 19 20 21 21 21 21 22 22 22 22 22 22 22 21 20 20 21 22
6 6 5 7 6 7 8 8 7 8 6 5 5 2 1 4 7 6 7 6 6 6 5 5 3 2 3 4 4 8 9 8 7 8 6 4 4 4 4 2 1 1 3 2 1 5 5 5 9 13 15 15 17 19 20 19 18 18 18 18 18 18 18 17 17 17 16 16 16 17 18 19 19 19 19 18 18 19 19 19 20 20 21 20 21 21 21 21 22 22 22 21 21 19 19 20 21
4 5 5 6 6 7 7 6 6 6 5 4 4 2 4 5 5 5 5 7 6 4 3 5 5 3 3 4 3 5 9 10 7 7 5 4 5 4 4 3 3 3 3 2 1 3 5 7 9 11 13 13 15 17 18 19 17 17 18 18 18 18 18 18 18 17 16 15 16 18 19 19 19 19 18 17 18 19 20 20 21 20 20 20 20 21 21 21 22 22 22 21 21 20 18 19 20
3 3 3 6 5 6 5 5 6 6 5 4 4 4 6 5 4 5 5 5 5 4 2 1 4 2 1 2 3 6 11 12 8 7 5 4 4 4 4 4 4 5 3 0 3 3 4 6 8 10 12 13 14 16 17 18 17 17 18 18 18 19 18 18 18 17 17 15 16 19 18 17 18 18 17 17 18 20 21 21 22 21 20 20 20 20 21 21 21 22 21 21 21 20 18 18 19
3 2 3 6 5 6 5 6 7 5 5 4 4 5 7 4 4 4 3 3 5 2 1 1 2 2 2 3 7 12 13 11 8 7 5 5 4 4 5 5 5 6 4 2 3 5 6 5 7 9 11 13 14 15 17 18 18 19 19 18 19 19 19 19 19 18 17 16 17 18 16 16 17 18 17 16 18 20 21 21 22 22 21 21 21 20 20 21 21 21 21 20 20 20 18 17 18
2 4 5 6 6 5 3 4 5 5 6 5 4 5 7 4 3 2 1 2 6 3 1 3 3 2 5 8 11 14 13 11 9 7 6 5 5 6 6 6 5 7 7 4 3 5 8 7 7 8 11 13 14 15 17 18 19 18 19 19 19 20 19 19 19 19 18 16 16 16 16 16 17 18 18 18 20 20 20 21 22 22 22 22 22 21 20 20 20 20 20 20 20 19 19 18 18
2 4 6 6 5 5 5 6 6 6 8 5 3 4 7 5 4 2 3 3 5 4 4 3 4 5 8 9 10 12 11 11 9 9 8 7 8 9 10 9 6 7 7 4 4 4 6 7 8 9 10 13 14 15 17 17 17 15 17 18 17 18 18 18 18 18 18 16 15 14 15 16 16 17 18 18 19 18 19 21 22 22 22 22 22 21 21 20 19 19 20 19 19 19 19 20 19
5 4 6 5 4 5 6 8 8 7 7 7 3 2 6 5 4 3 3 5 5 5 4 4 5 4 6 8 9 10 10 10 10 11 10 10 10 10 9 8 6 6 5 3 4 5 5 6 8 9 9 12 13 14 15 14 14 13 15 16 15 15 16 17 17 18 18 16 15 14 15 17 16 16 18 17 17 17 18 19 20 20 21 21 22 22 21 20 19 19 19 18 19 20 20 20 20
5 5 6 5 4 7 7 8 9 8 7 8 5 3 6 3 2 2 3 6 6 5 6 5 5 5 6 8 9 9 9 10 10 11 10 10 9 7 5 5 6 5 4 3 4 7 6 5 7 9 10 11 11 12 12 11 12 12 13 15 14 14 16 16 16 16 16 16 15 14 15 16 15 15 17 16 17 17 17 18 19 20 21 21 22 23 22 21 20 21 20 19 20 20 21 19 19
4 5 7 6 5 7 7 8 8 7 7 7 6 4 5 3 1 1 2 5 4 4 7 6 7 8 7 9 11 10 10 10 10 10 9 8 7 6 5 4 3 2 3 3 4 8 8 6 7 9 10 10 10 10 9 10 12 11 12 14 13 13 14 15 15 14 15 16 16 14 13 13 13 14 15 16 17 17 17 18 18 19 21 21 21 22 22 21 21 22 21 20 20 19 20 19 18
5 7 8 8 6 7 6 7 6 4 7 6 5 4 5 3 1 2 2 0 1 2 5 2 5 9 9 10 12 11 11 11 10 10 9 8 8 7 6 5 4 4 5 5 5 8 9 8 8 9 9 10 9 9 8 10 11 10 12 13 13 12 13 13 13 13 14 15 15 14 12 12 11 13 14 15 15 15 16 17 18 19 20 20 21 21 22 21 21 21 21 20 19 18 18 19 16
6 7 8 9 7 7 6 5 5 4 4 4 3 3 4 2 2 2 3 1 3 4 6 4 5 11 13 13 13 12 11 11 11 11 10 10 9 8 8 6 6 6 6 6 5 6 9 9 9 9 9 10 9 9 9 10 10 11 12 13 13 13 12 13 12 13 15 15 14 14 12 11 10 12 13 13 14 15 16 17 17 18 19 19 20 21 21 20 20 20 21 19 18 17 16 18 16
9 8 7 9 8 7 6 4 3 5 5 5 3 2 2 0 1 2 2 3 5 4 6 5 5 8 12 12 12 11 11 11 11 11 11 10 10 10 9 7 7 5 5 5 5 7 9 10 10 10 9 9 10 9 9 8 8 11 12 12 12 12 13 12 12 13 13 13 14 14 13 11 10 11 13 13 13 14 15 15 16 16 17 18 19 19 19 19 20 19 20 20 19 18 15 18 18
9 8 7 7 7 7 6 4 4 5 4 4 2 1 3 3 1 2 3 6 6 5 7 5 4 5 7 9 11 11 10 11 11 11 10 10 10 9 9 9 8 8 8 8 8 8 10 11 11 10 9 9 10 9 9 7 9 11 11 11 11 12 13 12 12 12 12 13 14 14 12 12 11 11 12 12 12 12 13 13 14 15 16 17 17 18 18 18 20 19 20 20 20 19 16 17 18
5 8 7 7 7 5 4 4 4 3 3 3 3 1 4 3 1 3 5 7 7 7 6 6 5 4 5 6 9 10 10 11 11 11 10 10 10 10 10 10 10 10 10 10 9 10 10 11 12 11 9 10 10 9 9 7 8 11 11 12 11 11 12 12 11 11 12 13 13 13 12 12 11 11 11 12 11 11 12 12 13 14 15 16 16 17 17 17 18 18 19 19 19 19 17 16 18
7 10 9 8 7 4 2 4 4 1 2 2 4 1 3 4 1 3 4 8 8 7 5 6 5 5 5 6 8 9 10 11 11 11 11 11 12 12 12 12 13 13 12 11 11 11 11 13 14 12 11 12 12 10 9 8 9 10 10 11 11 11 11 11 11 11 12 13 12 13 13 12 11 11 11 11 11 11 11 11 12 13 14 15 15 16 16 16 16 17 17 17 16 16 17 16 16
10 10 9 7 6 5 2 4 3 1 1 2 4 3 1 5 1 3 6 7 7 6 5 6 5 5 6 7 9 9 11 11 11 12 12 13 13 13 13 13 14 14 14 14 12 12 12 14 14 13 12 13 12 11 10 10 10 11 11 11 11 11 11 11 10 11 12 13 12 12 12 12 11 11 10 10 11 10 10 11 12 12 13 13 14 14 15 14 14 15 15 15 14 14 15 15 16
9 7 7 6 5 5 2 3 3 1 0 1 1 3 3 5 5 4 7 6 6 6 6 6 6 5 5 7 8 10 11 11 11 12 13 13 12 13 13 14 13 13 12 12 12 13 14 15 15 14 13 14 13 11 11 11 11 12 11 11 12 12 12 11 11 11 12 13 13 12 12 12 11 10 10 10 10 10 9 10 11 12 12 12 12 12 13 13 13 14 14 14 15 14 13 15 16
6 4 5 5 4 3 1 3 3 2 0 1 2 2 2 7 7 6 8 6 7 5 6 6 6 6 5 6 6 8 11 12 12 13 13 13 13 13 13 13 11 11 10 10 11 12 14 16 16 15 15 15 14 11 11 11 11 13 12 12 13 12 12 12 11 12 13 13 14 13 12 12 12 11 10 10 10 9 9 9 10 11 12 12 12 11 11 12 13 13 14 14 15 15 14 14 15
2 3 2 3 2 2 1 2 1 1 1 2 2 1 0 5 7 7 7 7 7 6 6 6 6 6 6 6 6 6 10 13 13 15 15 14 14 14 14 13 12 11 11 12 12 13 14 16 17 16 16 16 15 13 12 13 13 14 13 13 14 13 13 12 12 13 13 13 13 13 13 12 12 12 11 10 10 9 8 8 9 11 11 12 12 11 11 12 12 12 13 13 15 15 14 13 14
2 3 0 2 2 2 1 1 1 1 1 4 2 1 1 5 6 7 7 7 7 6 6 7 6 6 6 6 6 6 9 13 15 16 16 16 16 15 15 14 14 13 13 13 14 15 15 17 18 17 17 17 16 15 14 14 14 14 14 14 15 15 14 13 13 13 13 13 13 13 13 12 12 12 11 11 10 9 9 9 9 11 11 11 12 11 11 12 12 13 12 12 14 15 15 14 14
2 2 1 1 2 3 2 1 1 2 0 3 3 2 3 3 6 6 6 7 7 6 6 7 6 7 6 6 6 6 7 11 14 16 16 17 16 16 16 16 16 15 15 15 15 16 16 17 19 19 18 18 16 16 15 15 15 15 15 15 16 16 15 14 14 14 14 14 14 13 13 12 13 12 11 11 11 10 10 9 10 11 11 11 11 11 11 11 13 14 13 12 12 14 15 15 16
1 1 1 2 2 3 2 0 0 1 1 2 4 3 6 3 7 7 7 7 7 6 7 6 6 6 6 6 6 6 6 7 11 16 17 17 18 18 17 17 17 16 16 17 17 17 16 17 19 19 19 18 17 16 16 16 16 16 16 16 17 17 17 16 15 15 15 15 14 14 13 13 13 13 11 11 11 11 11 11 11 11 11 11 11 10 10 10 12 14 15 14 12 13 14 15 17
3 2 2 1 1 2 1 2 0 2 2 3 3 5 8 6 7 8 7 8 7 7 7 6 6 6 6 6 6 6 7 7 11 16 16 16 18 18 18 18 18 18 17 17 17 17 16 16 18 19 19 18 17 17 17 17 17 17 17 17 18 18 18 17 17 16 15 15 15 14 14 13 14 14 12 12 12 11 11 11 12 12 12 11 11 10 10 10 12 14 14 14 13 13 13 14 15
4 3 3 2 1 2 2 3 1 1 1 4 5 5 7 6 5 8 8 8 7 7 6 6 6 6 6 6 6 7 6 8 13 15 15 16 16 17 18 18 18 17 16 16 16 16 17 17 18 20 19 19 18 18 19 18 18 18 18 18 19 19 19 18 18 17 16 15 15 15 15 14 14 15 14 13 12 12 12 12 12 13 12 12 11 10 11 12 13 14 14 14 14 13 13 13 13
3 4 3 2 3 2 1 3 2 1 1 4 5 5 7 7 5 6 9 7 7 7 6 6 6 5 6 6 6 7 7 9 12 13 13 15 15 16 17 17 17 16 16 16 16 17 17 17 19 20 20 19 19 20 21 20 20 19 18 19 19 19 18 17 18 18 17 17 16 16 16 16 15 15 15 14 13 13 12 12 12 13 13 13 12 11 12 13 13 14 13 14 13 13 14 12 13
4 4 3 2 4 2 2 3 1 2 1 2 0 5 7 3 2 3 8 7 6 7 7 7 7 7 6 7 7 7 6 7 10 11 11 13 15 16 17 17 17 17 17 17 17 18 18 18 20 21 21 20 21 21 22 22 21 20 19 19 18 17 16 17 18 18 18 18 18 18 19 18 18 16 15 14 14 14 13 13 13 14 14 14 13 13 14 14 14 13 14 14 13 13 14 11 13
4 4 3 2 2 1 2 2 1 1 0 1 5 6 5 2 5 4 6 6 6 6 7 6 6 7 6 7 7 6 5 6 8 10 12 14 16 17 18 19 20 19 19 19 19 19 19 20 21 21 22 22 23 23 23 23 22 21 20 18 16 14 14 16 18 18 18 19 20 21 21 21 20 18 16 15 15 15 14 14 14 14 14 15 15 15 15 15 15 14 14 15 14 14 14 10 11
4 4 3 2 3 2 1 0 2 3 2 2 5 5 3 1 3 1 4 4 3 3 2 3 3 5 6 4 3 3 4 5 6 8 11 14 17 18 19 19 20 20 20 20 21 21 21 22 22 23 23 24 24 24 24 23 22 21 20 18 17 17 17 17 18 19 21 22 23 24 24 23 21 19 17 17 16 16 15 15 15 14 15 16 16 16 15 15 15 15 14 14 14 14 14 10 10
4 5 3 1 2 2 1 2 3 2 2 2 3 4 3 2 3 1 3 1 3 2 3 4 5 5 5 4 5 4 5 6 6 6 9 11 13 17 19 19 19 19 21 22 22 23 23 23 23 23 24 24 25 25 24 23 22 21 20 20 20 21 22 22 23 25 26 26 26 25 24 22 20 19 18 18 18 17 17 16 16 16 15 16 17 17 17 16 15 15 15 15 14 14 13 13 13
2 3 3 2 2 3 4 5 3 1 1 3 1 2 3 1 4 2 3 2 2 4 5 6 7 6 5 5 7 7 7 8 8 9 11 12 11 12 15 16 17 18 20 21 22 23 24 24 23 23 24 25 25 25 25 24 23 23 23 23 23 24 25 26 27 27 26 26 25 23 22 22 21 20 20 19 19 19 18 18 18 17 17 17 17 18 18 17 16 16 16 17 15 14 13 14 16
1 2 2 3 2 3 4 5 2 1 2 3 1 3 2 2 3 1 1 4 5 5 4 3 2 3 5 5 5 3 2 3 5 8 10 11 12 12 13 14 16 18 20 19 19 21 23 24 24 24 25 25 25 25 25 25 25 25 26 26 27 26 27 29 28 25 23 22 22 21 21 22 22 22 21 21 21 20 20 19 19 19 19 18 18 19 19 19 17 17 17 17 17 15 14 15 17
0 2 2 4 3 3 4 4 2 2 1 2 1 3 2 1 1 3 2 3 4 3 4 4 3 4 4 3 2 2 0 1 2 5 7 8 10 10 11 12 13 15 17 17 18 19 20 22 23 24 25 25 26 26 26 26 27 27 27 28 28 29 29 30 27 23 21 20 20 22 22 23 24 24 23 23 22 22 22 21 21 20 21 20 19 20 20 20 19 18 18 19 19 18 17 18 18
1 1 2 3 3 3 3 4 4 2 2 1 4 3 2 1 3 3 2 4 5 3 3 5 4 5 4 2 3 1 1 1 1 5 7 9 10 10 10 10 10 11 12 13 14 16 17 19 20 22 24 25 25 26 27 28 28 28 28 29 30 31 31 30 28 25 23 21 22 24 24 25 25 25 26 25 25 24 24 23 22 22 22 22 21 21 21 20 20 20 19 20 21 20 19 19 19
1 3 2 2 2 2 1 2 4 2 2 3 5 5 2 1 3 1 2 4 3 3 1 5 6 5 4 4 4 3 3 2 2 4 6 8 9 9 9 9 9 9 10 11 12 14 16 18 19 21 23 24 25 26 27 28 29 29 30 30 31 32 31 30 28 27 26 25 25 27 27 27 27 27 28 27 26 26 25 25 24 24 24 23 23 23 22 22 22 21 21 21 22 23 22 20 20
2 3 2 1 1 1 2 2 2 2 1 3 1 2 3 1 4 2 2 2 3 2 1 3 4 4 4 4 4 4 5 4 4 6 7 8 8 9 9 9 10 9 9 9 10 12 14 16 17 20 22 23 24 25 26 28 29 30 31 32 32 32 31 29 28 29 28 26 27 29 29 29 28 28 28 28 28 27 27 26 26 25 25 24 25 24 24 24 23 23 22 23 24 24 24 23 22
2 1 1 2 2 2 1 2 1 2 2 3 1 2 2 2 4 2 4 5 5 3 1 1 2 3 3 3 3 3 3 3 5 6 7 8 9 10 11 11 11 11 10 9 10 11 12 14 15 18 19 20 21 23 25 27 28 30 31 32 32 32 31 30 30 31 30 28 29 29 28 29 29 28 28 29 29 28 28 27 27 26 26 26 26 25 25 25 24 24 24 24 25 25 24 23 24
1 2 3 4 2 2 1 1 0 1 4 2 3 2 1 2 4 4 7 6 5 3 2 2 0 1 1 2 3 2 1 3 4 5 6 8 10 11 12 12 12 13 12 12 11 10 11 12 13 16 18 17 18 19 21 24 26 28 29 30 31 31 31 30 31 31 31 29 29 29 28 29 29 28 29 30 30 29 29 28 28 28 27 27 26 26 26 26 25 25 25 26 26 26 26 25 26
0 1 3 2 1 1 1 1 0 1 3 2 1 1 1 2 2 5 7 6 6 5 4 3 2 2 1 1 3 2 2 4 3 3 5 7 8 9 10 11 12 13 13 14 13 13 13 12 12 14 16 16 16 16 18 20 23 24 25 27 28 29 29 30 30 30 30 29 28 28 28 28 28 28 29 29 29 29 29 29 28 28 28 27 27 27 27 27 26 26 26 27 28 28 27 27 27
1 1 4 2 2 2 1 1 0 2 2 2 1 0 2 2 3 4 7 6 6 5 4 4 3 4 4 4 3 0 3 4 2 3 5 7 7 8 9 10 12 13 14 14 14 15 15 14 13 13 14 15 15 15 16 17 19 20 21 22 23 24 26 27 28 28 28 27 27 27 27 27 27 27 27 27 27 27 28 28 28 28 28 28 27 27 28 28 28 28 28 29 29 29 28 29 30
2 1 4 1 2 2 1 1 1 1 1 2 1 2 3 3 1 4 7 6 6 5 5 5 5 6 5 3 1 2 3 2 2 3 5 7 8 8 9 10 11 13 14 15 15 16 16 16 16 15 15 15 14 14 14 14 15 17 17 19 19 20 21 23 24 25 25 25 25 25 26 26 26 26 26 26 26 26 27 27 27 27 27 27 28 28 28 28 29 29 30 30 31 30 30 31 31
1 1 1 2 2 3 3 0 1 1 1 2 1 2 2 1 1 2 6 5 6 6 6 6 6 6 5 4 3 3 2 2 2 4 6 8 9 9 10 11 12 13 14 15 15 16 16 16 17 17 16 15 15 14 13 13 12 13 15 16 17 18 18 20 21 22 22 22 23 24 25 25 25 25 25 25 25 25 26 25 26 26 26 27 28 28 29 29 29 30 31 32 32 31 31 32 32
2 1 2 2 1 2 2 1 2 1 1 2 1 2 3 1 2 3 5 6 7 7 7 6 6 6 5 5 4 4 3 2 3 5 6 7 8 9 10 11 13 13 14 14 15 15 15 16 16 16 16 16 16 15 14 13 12 12 13 14 14 15 16 16 17 18 18 19 20 21 22 23 23 23 23 23 23 24 25 25 25 26 26 27 28 28 29 29 29 31 32 32 32 31 31 33 32
3 2 2 0 1 0 1 1 0 1 2 3 2 2 2 4 4 5 7 8 8 7 7 6 7 6 5 5 5 4 3 3 4 4 6 7 9 10 10 12 13 13 13 14 14 15 15 16 15 15 16 16 15 15 14 13 12 12 12 13 13 13 14 15 14 14 15 16 16 17 17 18 19 19 20 21 21 22 23 24 24 25 26 27 27 28 28 29 29 31 32 32 32 32 32 33 33
1 1 2 0 1 2 2 1 1 2 1 3 2 2 3 6 6 9 10 10 9 8 7 7 7 6 6 5 5 4 3 3 3 3 5 8 9 10 10 11 13 13 13 14 14 15 15 16 16 15 15 16 16 15 15 14 12 11 11 11 11 11 12 12 12 12 13 13 14 15 15 15 16 16 16 17 18 19 20 21 22 23 24 25 25 26 27 28 29 30 31 32 32 31 32 33 33
1 1 0 1 0 0 1 0 1 2 1 2 1 2 5 5 3 8 11 9 9 9 8 7 6 6 6 5 5 5 3 3 3 3 5 7 9 10 10 11 12 12 13 14 15 15 15 16 16 16 16 18 18 16 16 15 14 13 12 12 12 11 11 12 12 12 12 13 13 14 14 14 14 13 13 13 14 15 16 18 19 20 21 22 23 24 25 26 27 29 30 30 31 31 32 32 32
2 3 3 2 2 3 1 2 1 1 1 2 1 3 7 5 2 4 8 8 8 9 8 7 6 6 6 6 6 6 5 4 3 3 4 6 8 9 10 11 11 12 13 15 15 15 16 16 17 17 17 17 17 17 17 16 16 15 15 14 14 14 13 13 13 13 13 14 13 13 14 14 14 13 12 12 12 13 14 15 16 17 19 20 21 22 23 24 26 27 28 29 30 30 31 32 32
Wind_Direction
53 45 44 30 98 83 68 85 76 51 65 74 70 72 67 63 76 74 68 67 60 51 47 54 34 45 80 93 98 81 53 47 19 9 100 138 115 79 59 47 41 36 30 34 29 8 7 18 16 15 16 17 20 18 18 20 19 20 21 21 21 21 21 21 20 20 20 20 20 20 20 20 19 19 20 19 19 19 19 19 18 19 19 18 18 17 17 16 15 14 13 13 12 12 11 10 8
26 17 40 31 54 76 77 307 75 75 67 75 69 69 77 66 67 66 62 66 64 60 62 64 39 57 97 107 102 88 63 58 68 78 109 131 113 80 62 48 53 41 32 36 30 2 3 19 18 17 18 18 19 18 19 20 21 22 21 22 21 21 21 21 20 20 20 20 20 20 20 19 20 20 21 21 20 20 20 19 19 18 19 18 17 17 16 15 15 14 13 13 12 12 11 10 9
18 356 78 53 26 31 110 70 74 88 71 78 71 67 82 77 72 74 74 74 77 95 93 69 38 36 77 83 72 71 65 57 74 92 105 118 103 75 59 45 63 47 38 41 29 2 8 22 20 20 20 19 20 19 20 20 22 23 23 23 22 22 22 21 21 21 21 20 20 20 20 20 21 22 22 23 21 20 21 20 20 19 19 18 17 16 16 15 14 14 13 12 12 11 10 10 8
48 63 83 70 35 15 57 68 68 86 79 83 79 76 78 84 85 82 81 73 65 75 82 72 42 30 54 67 77 80 79 64 61 89 100 81 82 80 56 51 66 53 46 46 28 11 19 25 24 23 21 21 20 20 21 22 23 24 24 24 24 24 23 23 22 22 22 22 22 21 21 22 22 23 24 23 22 22 21 21 21 20 19 18 17 16 15 14 14 13 12 12 11 11 10 9 8
66 69 70 70 68 33 46 66 64 67 75 87 92 90 85 94 95 89 90 79 55 40 67 92 81 59 55 38 45 82 95 109 72 77 99 85 86 95 65 62 66 56 50 46 26 18 25 26 27 26 22 22 21 22 22 23 24 25 26 25 26 25 24 25 24 24 24 24 24 24 24 24 24 24 24 24 23 22 21 21 21 20 19 18 17 15 14 14 13 12 11 11 11 11 9 8 7
72 67 63 62 58 53 77 75 72 67 71 85 94 95 92 96 100 101 97 88 76 36 44 78 104 106 84 45 53 50 6 116 102 71 97 106 102 108 82 72 68 63 54 46 20 17 26 24 26 27 25 25 21 23 23 24 25 25 27 26 26 25 26 25 26 26 26 27 26 27 26 26 27 25 25 25 24 23 22 21 20 20 19 18 17 16 15 13 12 11 11 11 10 11 10 9 7
72 67 59 62 57 53 76 74 73 73 70 77 93 102 105 109 116 121 113 106 96 62 51 87 125 112 112 136 73 48 21 73 112 83 101 115 108 109 92 91 80 69 58 46 12 11 24 22 24 26 25 26 23 23 24 25 25 27 27 26 26 25 26 26 26 27 27 29 29 29 29 28 28 27 26 25 25 24 22 21 21 19 18 18 17 16 15 14 13 11 11 10 10 11 11 11 9
79 80 63 81 78 59 75 76 73 75 71 70 84 96 106 117 119 117 109 104 108 103 100 125 130 101 106 157 89 90 69 81 108 104 110 116 116 111 82 96 89 76 65 45 7 359 16 20 21 25 26 27 24 24 26 26 26 28 27 26 26 24 25 26 26 28 29 30 31 31 30 29 28 27 27 25 24 24 23 21 20 19 18 18 17 17 16 15 14 13 12 11 11 12 12 12 11
85 86 89 82 83 82 76 77 79 79 80 76 82 87 90 103 104 98 94 93 101 99 90 101 115 109 105 90 97 134 112 103 116 116 117 120 125 121 87 92 94 84 69 43 10 341 359 14 18 22 26 27 25 25 25 25 27 28 28 26 24 25 24 25 26 27 29 30 32 31 30 29 27 27 27 26 24 24 24 21 20 20 19 18 18 17 17 16 15 15 13 12 13 13 14 14 13
86 86 96 81 84 90 79 80 83 81 84 86 89 91 91 94 97 95 95 96 92 92 82 61 81 113 114 100 113 132 129 136 136 130 128 138 142 137 115 97 90 83 60 27 38 350 342 357 13 18 22 27 26 24 24 24 26 27 28 27 24 24 24 25 26 25 28 29 31 31 30 28 26 26 25 26 24 23 24 23 20 20 20 19 18 18 18 17 16 16 15 14 14 15 16 16 15
84 81 96 90 81 85 87 91 90 95 94 92 87 79 87 92 96 95 97 102 101 107 85 37 94 108 109 98 99 123 134 154 163 149 144 163 156 153 138 120 96 80 358 9 31 10 342 342 359 11 18 24 25 23 22 22 25 27 27 27 26 25 25 26 25 25 28 30 31 31 29 28 27 25 25 25 24 23 25 26 22 19 20 19 19 19 18 18 16 16 16 16 15 17 18 18 17
83 73 75 80 81 88 96 103 102 109 105 96 86 60 70 100 103 104 106 114 119 103 42 338 113 110 111 100 133 141 148 172 173 149 153 174 163 173 150 144 130 97 316 30 6 344 9 340 345 3 14 16 19 21 20 21 23 25 27 28 27 26 26 26 26 27 29 31 32 31 30 29 28 26 25 25 25 25 26 30 27 20 20 19 19 19 18 18 17 17 16 16 16 18 19 20 20
83 87 91 87 88 98 100 104 108 108 99 88 87 25 330 91 91 95 112 107 96 95 38 9 24 353 101 100 129 151 168 173 159 146 164 179 170 182 148 172 196 203 296 17 342 330 2 341 341 1 15 13 11 16 17 20 22 23 26 27 27 28 27 27 28 30 32 33 33 33 32 30 28 26 26 26 28 29 28 33 32 23 20 21 19 19 18 18 18 17 17 17 16 18 18 19 19
83 101 99 101 99 104 106 107 113 107 94 95 102 56 46 68 61 58 90 91 69 75 62 14 351 332 103 129 152 165 166 158 157 154 167 176 174 192 174 213 231 223 285 353 318 321 330 333 348 360 13 17 13 11 14 19 21 24 27 27 28 29 28 29 30 31 34 33 35 36 32 30 30 26 26 28 31 32 30 33 36 28 21 21 20 19 18 17 18 17 17 18 17 18 18 17 17
81 123 88 96 99 90 89 96 106 103 105 111 107 92 77 56 29 39 47 79 75 62 116 34 345 339 87 175 169 140 145 151 165 161 169 180 178 206 204 219 247 261 289 298 265 294 306 322 341 352 6 14 14 12 12 16 20 25 28 28 29 30 28 31 32 32 34 33 37 36 29 29 32 29 27 30 34 35 32 32 36 32 24 24 24 19 18 18 17 17 17 18 19 19 20 18 17
52 103 79 81 83 85 92 106 108 101 107 108 115 115 99 62 27 51 23 76 110 110 202 79 26 323 33 65 103 121 138 150 160 163 178 184 192 218 226 239 247 263 289 302 266 289 307 323 335 341 359 7 10 12 10 13 18 20 21 23 26 27 27 30 31 30 31 31 38 35 26 27 32 30 28 31 36 36 33 33 35 34 28 28 29 22 19 18 16 17 17 18 19 20 21 19 17
71 70 78 75 61 69 84 101 107 107 109 123 157 133 105 94 60 80 243 111 118 144 146 71 59 33 70 89 110 123 138 148 153 164 178 188 211 221 228 239 233 236 258 299 279 272 303 324 334 337 352 0 4 9 9 11 14 14 12 14 19 20 22 28 28 28 28 28 37 34 24 28 30 25 26 31 33 32 30 32 32 32 29 28 31 26 23 20 16 15 15 17 18 19 21 23 23
85 72 71 73 55 47 48 73 99 115 121 137 158 128 113 128 125 149 209 115 115 131 113 111 92 70 91 109 124 133 143 150 158 170 178 194 215 224 221 215 219 228 236 276 275 261 295 310 322 335 344 352 359 5 9 11 10 7 6 10 14 13 14 21 23 26 25 24 34 33 25 32 31 20 23 27 28 27 26 29 28 28 27 27 29 26 26 22 15 14 13 15 17 18 20 24 26
55 84 73 66 60 54 61 88 106 110 121 128 102 65 111 133 148 170 194 129 143 142 129 158 131 112 125 129 139 145 152 157 169 181 186 198 213 225 218 198 201 221 222 235 256 266 288 290 306 325 334 348 359 2 7 8 2 3 4 7 13 12 13 17 17 19 22 22 28 30 25 29 29 18 21 25 25 24 24 27 25 24 25 26 26 24 26 23 16 17 14 14 15 16 19 20 20
45 76 83 81 84 69 60 82 99 107 119 121 110 64 98 125 144 160 175 147 176 168 150 180 165 165 159 155 161 160 169 173 181 193 200 206 216 231 227 203 197 199 203 207 237 262 279 275 287 312 331 347 358 2 4 357 355 3 0 3 11 9 12 18 14 12 15 19 23 27 24 23 23 14 17 24 25 22 22 26 22 21 23 24 26 24 26 25 19 19 16 16 15 13 15 15 14
52 58 91 105 102 81 55 64 78 102 113 114 130 120 105 113 104 228 189 148 198 167 148 186 174 167 164 166 174 174 183 184 189 205 216 218 219 232 241 246 226 182 187 212 239 257 271 273 280 305 328 340 351 360 356 345 353 3 354 1 12 6 8 15 12 8 11 19 21 24 25 22 20 11 13 21 23 21 21 26 22 19 20 21 24 24 25 26 21 19 17 17 15 10 10 10 9
79 55 88 98 92 91 73 62 30 53 111 120 136 125 111 125 166 247 297 107 263 105 120 150 148 154 163 169 175 181 191 191 195 205 216 222 222 229 236 246 244 234 239 245 246 253 262 268 279 298 319 329 342 350 344 344 352 354 349 359 10 6 8 11 7 6 11 18 18 18 22 24 19 9 12 19 19 19 20 24 22 19 20 19 21 20 22 26 23 18 17 17 14 10 6 6 8
95 68 76 82 84 92 89 73 355 353 99 97 82 111 131 179 173 107 324 354 59 64 94 87 114 146 160 168 174 183 193 194 199 202 208 217 221 229 236 243 241 234 241 248 242 242 253 263 275 288 305 318 331 338 342 349 344 340 345 357 4 3 8 8 4 9 10 11 14 14 15 21 20 8 11 16 14 15 18 20 18 16 17 18 20 18 17 23 24 19 18 19 16 15 6 2 8
90 94 78 79 82 79 83 80 9 23 58 61 50 174 143 239 125 60 281 137 98 82 96 93 104 140 158 166 174 188 198 198 204 208 210 217 221 229 238 244 249 250 249 252 247 241 249 259 271 286 295 306 320 329 339 343 327 330 343 352 355 358 5 4 3 12 9 3 9 11 8 14 17 11 13 14 11 13 14 15 14 13 12 15 18 17 15 18 21 17 15 18 18 18 10 358 2
71 99 98 92 87 83 91 91 63 53 60 51 338 216 88 53 52 301 234 140 128 131 116 122 128 146 170 174 179 190 203 205 212 215 214 221 225 229 234 238 244 250 251 254 253 246 247 256 267 280 288 294 305 316 327 327 317 325 337 343 346 355 0 358 3 10 5 2 5 5 4 6 10 12 13 12 11 14 13 12 12 11 9 10 14 15 15 16 17 13 9 13 14 13 9 358 355
77 104 107 99 96 101 111 97 73 53 70 35 320 154 107 90 85 259 210 142 137 143 138 155 158 177 197 198 194 194 208 211 213 220 220 222 227 232 235 238 241 245 250 252 253 249 244 250 262 270 275 281 290 301 310 311 310 316 325 332 338 351 353 353 3 3 358 3 2 0 2 2 3 5 9 8 8 13 12 12 12 10 9 6 8 11 13 15 14 8 5 6 8 6 5 357 348
112 105 102 101 105 104 109 101 89 48 73 16 318 358 119 121 125 254 181 136 135 147 159 167 173 195 198 209 211 205 214 219 216 219 224 224 223 230 237 240 243 246 248 248 250 251 245 246 257 264 264 269 281 290 293 295 298 304 315 323 329 341 346 350 359 355 353 358 358 358 359 360 359 357 3 2 0 7 6 9 12 9 9 4 3 9 9 13 10 3 4 5 2 359 360 356 348
116 112 102 102 116 113 130 118 115 210 87 3 324 326 182 132 193 237 147 137 148 160 174 174 188 208 202 206 214 214 219 227 225 219 223 227 225 227 234 238 242 244 244 246 246 246 246 246 253 258 259 266 276 281 284 289 293 300 310 316 321 331 338 346 351 348 348 350 353 356 355 355 355 353 356 354 355 1 359 1 4 3 8 3 1 8 5 9 8 358 2 6 3 358 354 353 351
134 134 106 121 141 119 146 123 117 224 49 51 16 326 243 185 225 189 135 147 160 170 186 181 195 214 214 204 206 213 219 227 228 226 229 234 235 234 239 241 240 240 243 247 244 240 241 244 248 252 254 263 274 273 274 284 289 296 305 309 314 321 328 337 340 341 342 342 347 352 351 350 350 349 347 347 350 354 356 354 350 354 2 357 359 7 1 6 5 354 358 2 3 2 352 350 351
160 150 113 147 153 113 138 119 135 202 161 155 102 6 240 199 208 152 138 161 162 184 204 191 196 208 220 210 201 207 215 222 225 231 234 236 240 241 245 247 244 244 248 248 244 241 239 241 245 247 249 259 269 268 265 274 281 289 297 300 306 314 321 327 328 331 337 337 340 345 347 346 345 344 342 341 342 346 354 346 336 344 352 349 355 2 360 4 359 352 357 355 355 358 354 352 346
149 115 137 181 137 118 160 119 161 203 200 204 153 18 188 173 174 148 156 167 161 190 211 207 205 199 211 210 203 207 215 221 225 232 232 232 235 238 242 245 244 246 249 249 247 245 240 240 244 246 249 256 263 264 262 266 272 281 289 291 298 307 312 315 317 321 328 331 332 336 340 340 339 339 338 337 337 337 342 338 330 335 343 343 348 353 355 359 355 352 355 350 346 348 350 350 340
123 90 150 203 128 137 160 94 47 55 186 206 181 314 328 144 153 156 167 169 171 197 213 213 213 205 206 203 204 210 220 224 226 229 231 231 232 232 236 239 242 243 247 248 245 246 241 240 245 247 249 254 258 262 262 263 267 275 281 284 290 299 303 305 309 313 318 322 323 327 333 335 333 334 333 332 332 329 329 329 324 327 336 338 342 348 348 346 346 350 352 345 340 340 343 342 338
184 166 103 82 94 151 186 357 51 52 70 196 186 289 318 131 149 162 172 176 182 202 221 221 215 210 205 200 204 206 217 226 225 225 228 231 231 231 234 237 240 240 242 245 242 244 243 239 243 247 250 254 256 259 262 263 266 271 277 281 285 292 296 298 300 304 308 312 314 319 325 328 328 328 327 327 327 324 322 320 317 322 332 334 336 341 340 337 335 338 343 342 337 335 336 334 335
229 206 116 51 54 147 182 16 188 244 248 211 180 225 285 231 166 173 184 184 186 203 223 233 229 217 205 199 205 210 215 221 223 226 227 229 231 232 233 234 235 237 241 247 245 244 245 241 243 248 250 253 254 256 261 263 264 268 272 277 281 286 291 292 293 294 297 302 305 310 316 321 322 322 323 323 321 320 317 316 316 319 325 329 329 330 331 328 322 324 331 337 336 331 332 333 331
2 11 43 46 41 90 103 131 215 264 214 226 197 218 269 257 173 176 193 188 191 207 215 228 238 229 215 204 207 217 221 225 228 229 229 231 231 226 224 226 233 242 248 252 251 245 244 240 242 248 249 249 251 251 256 260 262 264 267 271 275 280 284 286 286 286 290 294 297 301 307 313 314 316 318 317 315 314 313 312 312 312 317 319 319 319 318 313 311 317 324 330 333 331 333 333 323
339 322 340 22 47 62 72 115 79 339 224 241 232 229 270 274 201 187 191 187 194 212 215 223 236 237 232 219 214 217 219 231 235 235 234 231 226 220 221 229 239 250 253 254 252 246 243 238 239 246 248 248 246 244 249 253 255 259 262 265 269 275 280 283 284 285 286 289 292 294 299 305 307 310 313 312 311 310 308 306 304 305 307 309 312 312 307 306 309 315 320 325 330 329 328 326 311
296 298 299 38 61 78 90 91 125 79 348 246 232 260 274 278 263 195 171 174 194 212 219 224 227 231 237 232 230 227 222 234 237 236 233 225 221 221 226 235 241 248 252 251 248 247 246 240 239 246 249 247 245 244 248 252 253 255 257 262 268 274 278 279 280 283 286 288 289 290 293 298 300 302 305 306 306 305 305 303 300 301 302 302 305 304 300 303 305 309 316 321 327 323 322 324 312
294 307 307 47 62 57 54 53 154 118 46 226 14 313 273 250 3 110 140 163 199 209 214 222 224 224 228 231 235 235 232 234 228 221 220 220 223 227 232 236 239 244 249 250 249 250 248 243 241 247 249 247 248 249 250 254 257 259 260 265 271 275 275 275 277 281 285 286 285 288 291 293 295 296 298 300 301 301 301 301 300 299 300 298 298 297 298 302 304 308 312 315 320 317 321 327 316
320 321 330 18 61 22 46 47 255 152 172 327 22 340 277 140 95 119 154 186 206 200 204 213 217 223 224 223 227 233 239 235 222 213 215 225 232 234 235 237 241 244 247 249 250 248 245 243 242 244 247 249 251 251 252 256 260 262 262 264 266 266 266 268 272 276 278 280 282 285 287 289 291 291 292 295 296 298 298 298 298 296 295 295 294 293 294 297 300 302 303 306 312 314 320 325 314
9 12 14 11 23 23 67 26 256 212 210 303 344 326 275 124 93 182 210 213 214 174 200 241 229 230 234 244 267 273 261 251 240 228 224 228 227 224 229 236 242 243 242 242 244 244 242 244 244 244 246 249 252 252 254 257 258 259 260 259 255 253 254 256 260 264 268 273 276 280 284 287 286 285 288 290 291 295 296 295 295 292 291 291 291 291 291 291 292 294 294 297 302 305 311 311 305
36 27 49 22 358 3 274 301 290 236 206 251 306 328 280 161 105 251 238 236 267 198 197 256 255 244 255 294 304 280 260 255 257 254 247 242 226 219 227 237 242 244 243 243 243 245 247 248 249 248 248 250 253 255 255 254 251 250 250 251 250 250 252 252 254 261 264 268 274 280 284 284 282 281 283 286 288 291 293 294 292 290 289 288 288 290 290 290 287 286 287 289 291 293 297 299 300
35 14 26 349 332 327 303 310 326 9 318 249 182 50 284 236 99 154 189 150 227 196 193 232 237 224 217 246 259 249 241 240 244 251 258 261 256 241 233 234 239 245 251 253 251 251 252 253 252 252 251 251 253 255 255 252 248 246 245 245 248 250 253 256 259 266 270 273 278 282 282 281 280 279 281 283 285 287 289 292 292 290 288 285 286 287 288 288 284 281 282 285 286 286 286 286 291
352 299 324 312 311 315 312 319 336 95 240 247 136 121 234 304 67 125 187 148 160 176 192 207 191 174 181 208 229 241 262 259 257 265 268 269 271 265 249 241 244 252 260 263 259 258 256 255 254 253 254 253 253 254 254 252 249 248 247 249 253 253 256 263 268 272 277 280 281 278 277 277 278 279 280 281 282 284 285 287 289 289 288 286 284 284 285 286 284 281 280 281 281 281 277 273 281
203 253 296 308 317 320 333 342 291 238 246 261 58 112 167 280 239 196 201 136 131 142 149 132 121 125 142 181 151 123 329 6 337 309 308 306 299 289 277 267 262 265 270 269 265 264 261 259 258 257 257 256 255 254 252 252 252 250 250 251 254 256 258 264 268 269 273 277 276 273 273 274 276 278 279 280 281 282 282 282 284 285 286 286 283 282 284 284 282 280 277 276 276 276 273 271 276
118 297 301 311 338 332 335 333 280 276 57 290 321 23 123 236 258 208 157 91 70 42 112 132 128 118 116 99 91 102 231 170 287 300 313 321 322 316 310 302 288 281 281 277 272 271 268 265 264 260 259 258 256 255 253 254 254 253 252 252 253 257 260 263 265 263 263 264 265 268 269 270 273 276 277 278 279 280 280 281 280 280 282 284 283 282 282 281 279 278 274 273 274 275 274 272 273
283 309 293 273 303 297 270 291 288 338 71 260 316 10 93 228 280 240 82 75 64 339 38 115 102 93 84 59 49 28 18 36 339 330 335 339 338 332 328 324 317 307 294 285 279 275 273 271 269 266 263 261 258 256 255 255 256 254 253 252 254 257 260 261 262 262 260 257 258 261 263 266 269 273 275 277 278 278 279 279 278 278 280 280 281 280 280 279 278 276 274 273 273 274 274 272 270
297 305 296 267 273 275 224 236 280 16 347 251 289 16 93 152 279 266 111 140 169 248 286 84 72 67 70 54 32 25 20 10 10 14 6 1 1 358 356 352 348 342 326 309 298 291 286 283 278 275 273 269 264 261 259 259 258 256 255 255 255 258 259 259 259 260 260 257 256 258 261 264 267 271 274 276 277 278 277 278 277 278 278 277 278 279 279 280 279 277 275 272 271 272 273 271 269
349 323 338 22 3 342 1 317 6 66 263 235 128 19 77 152 260 230 145 157 156 181 238 64 40 40 60 46 27 22 6 0 19 20 10 10 11 10 11 8 3 0 357 345 328 315 306 298 292 287 285 282 276 270 265 263 262 260 260 259 259 260 260 259 258 259 260 258 259 261 262 264 267 269 272 273 276 277 277 277 277 276 276 277 278 279 279 279 278 276 274 273 273 272 272 270 267
20 355 32 50 35 6 18 296 355 154 247 231 94 29 312 215 230 168 150 159 152 154 150 111 26 320 9 29 12 333 348 38 31 16 11 16 15 10 10 8 4 2 1 355 347 339 326 314 305 297 297 297 292 285 277 272 269 266 266 266 265 266 264 262 262 262 263 262 263 264 264 265 267 268 270 273 277 279 278 278 278 278 279 279 280 279 278 278 276 274 274 273 273 273 273 271 269
218 24 64 77 109 29 301 267 343 236 266 285 62 23 270 274 254 160 156 160 151 146 140 146 195 237 291 296 280 285 79 76 42 16 20 20 16 11 10 5 1 358 356 354 353 350 342 333 322 309 306 305 302 296 289 281 277 275 274 274 273 272 270 269 268 268 268 268 267 267 267 268 269 271 273 276 280 281 279 280 280 280 280 280 280 279 277 276 274 273 272 272 272 272 272 271 271
243 142 103 116 149 154 221 247 260 239 279 317 347 26 172 210 245 175 147 142 145 144 150 166 206 218 228 243 248 343 80 79 47 25 24 22 16 11 9 4 360 356 352 354 356 352 348 348 342 331 323 319 313 305 298 291 286 284 283 282 281 280 278 277 275 274 274 274 273 272 272 272 273 274 277 279 280 279 278 280 280 279 281 281 280 279 277 275 273 271 271 270 270 271 269 268 269
281 85 92 119 184 150 158 186 210 198 325 313 270 244 197 169 201 153 128 137 156 156 170 191 216 215 205 199 159 99 81 67 47 34 27 23 16 12 10 2 358 355 352 354 356 353 354 355 352 348 342 337 331 322 312 304 297 293 290 289 289 288 287 285 283 282 280 279 279 278 277 276 276 276 277 277 277 277 277 278 278 279 280 280 280 280 278 276 274 271 270 270 270 270 268 267 269
337 58 130 243 183 120 115 331 327 79 317 275 230 263 260 38 333 175 144 164 182 180 199 201 194 190 173 157 145 128 106 71 55 45 30 20 13 12 12 5 359 356 354 354 354 354 356 356 353 352 351 348 344 338 331 322 312 303 297 294 294 294 294 294 293 292 290 287 284 283 282 281 281 280 279 279 278 278 278 278 279 280 280 281 281 281 279 277 275 272 271 270 271 271 270 269 269
102 133 252 267 111 106 105 34 340 10 254 262 219 248 240 190 286 213 176 200 204 192 195 187 177 179 174 169 163 148 128 90 54 38 24 12 10 12 10 6 2 360 358 357 355 356 358 359 356 354 353 352 350 347 343 339 332 323 315 309 305 301 302 303 301 300 300 298 295 294 292 291 291 290 288 287 285 283 283 282 282 283 284 284 283 282 281 279 276 274 272 272 272 273 271 270 270
164 213 270 322 112 150 133 112 308 261 260 272 288 302 241 204 205 197 197 209 204 186 181 183 187 184 177 174 162 139 112 81 52 27 9 5 7 9 8 5 4 5 4 1 359 359 2 3 360 357 357 357 356 353 350 347 342 335 328 323 318 314 314 315 314 312 312 312 313 313 311 308 307 304 301 298 295 292 290 289 288 288 288 288 287 285 283 281 278 275 274 273 273 273 270 270 271
226 312 334 352 152 181 185 165 167 174 221 274 309 350 270 234 203 183 192 200 189 178 182 191 190 179 173 168 150 130 116 103 77 24 358 1 9 10 9 8 7 7 6 5 6 6 5 4 3 3 4 3 4 4 1 359 355 348 343 340 338 334 330 330 331 330 329 330 331 331 330 328 325 321 315 310 306 302 299 296 295 294 293 292 291 289 287 284 280 277 275 275 275 274 271 271 272
134 104 168 220 60 107 202 207 136 151 191 261 300 299 265 259 208 175 182 188 179 172 178 188 183 173 169 156 142 138 134 119 95 34 358 4 15 14 11 10 9 8 8 11 13 11 9 9 9 11 10 8 10 14 14 13 13 12 9 6 3 360 358 356 354 352 350 348 345 343 342 340 339 338 333 325 318 312 307 304 302 300 299 297 295 293 291 288 284 281 279 278 278 276 273 273 274
155 162 179 179 140 123 125 298 280 139 164 198 184 274 265 271 304 169 163 163 169 165 163 173 180 177 167 151 145 144 135 120 102 56 14 13 19 20 17 13 11 12 14 16 18 16 15 15 15 17 18 16 17 21 24 25 26 26 24 20 18 15 12 9 8 7 3 358 353 350 347 346 346 348 346 338 331 323 316 311 308 306 305 302 300 298 297 294 290 288 285 283 282 280 278 278 278